Simultaneous Nadir Overpasses (SNOs) Predictions

Prediction of SNOs between AQUA and METOP-A Satellite Orbit:

Table of predicted SNOs for the next 14.0 days since TLE Epoch: 1/3/2015
Index Date (AQUA) Time (AQUA) Lat,Lon (AQUA) SZA (AQUA ) Date (METOP-A) Time (METOP-A) Lat,Lon (METOP-A) SZA (METOP-A ) Distance(km) Time Diff (sec)
1 01/05/2015 05:31:43 73.77, 91.44 96.43 01/05/2015 05:30:50 73.74, 91.42 96.41 3.27 53
2 01/05/2015 06:21:10 -73.85,-101.09 83.49 01/05/2015 06:21:30 -73.83,-101.05 83.52 2.78 20
3 01/05/2015 07:10:51 74.55, 64.92 97.26 01/05/2015 07:11:56 74.51, 67.99 97.12 91.22 65
4 01/08/2015 01:05:55 73.77, 157.90 96.10 01/08/2015 01:05:09 73.78, 157.92 96.12 1.10 46
5 01/08/2015 01:55:22 -73.84, -34.62 83.83 01/08/2015 01:55:49 -73.86, -34.55 83.82 2.95 27
6 01/10/2015 20:40:06 73.75,-135.60 95.69 01/10/2015 20:39:29 73.75,-135.71 95.71 3.49 37
7 01/10/2015 21:29:33 -73.82, 31.88 84.24 01/10/2015 21:30:09 -73.84, 31.81 84.23 2.75 36
8 01/13/2015 16:14:16 73.77, -69.18 95.27 01/13/2015 16:13:47 73.77, -69.25 95.28 2.04 29
9 01/13/2015 17:03:43 -73.84, 98.31 84.67 01/13/2015 17:04:27 -73.86, 98.28 84.65 2.17 44
10 01/16/2015 10:58:46 -73.11,-168.96 85.94 01/16/2015 10:57:40 -73.10,-171.69 85.83 88.25 66
11 01/16/2015 11:48:26 73.78, -2.73 94.78 01/16/2015 11:48:06 73.79, -2.80 94.79 2.37 20
12 01/16/2015 12:37:53 -73.84, 164.77 85.17 01/16/2015 12:38:46 -73.87, 164.73 85.14 3.27 53




NCC Satellite Simultaneous Nadir Overpasses (SNOs) Prediction Service
